Overview Statistics Trail Chart Weather Telemetry Raw packets
 

This is the latest recevied weather packets stored in our database for station/object OE3APM-13. If no packets are shown the sender has not sent any weather packets the latest 10 day(s).

<< 95 96 97 98 99 100 101 >>
Time Temp. Humidity Pressure Rain* Wind** Luminosity Snow
1787908042 24.44° C 52% 1014.7 hPa 0 mm - 622 W/m² -
1787907740 24.44° C 51% 1014.9 hPa 0 mm - 615 W/m² -
1787907440 24.44° C 53% 1015 hPa 0 mm - 606 W/m² -
1787907141 24.44° C 52% 1015 hPa 0 mm - 598 W/m² -
1787906841 23.89° C 53% 1015 hPa 0 mm - 585 W/m² -
1787906542 23.89° C 54% 1015 hPa 0 mm - 573 W/m² -
1787906240 23.33° C 54% 1014.9 hPa 0 mm - 566 W/m² -
1787905941 23.33° C 54% 1015 hPa 0 mm - 559 W/m² -
1787905640 23.33° C 55% 1015.1 hPa 0 mm - 547 W/m² -
1787905340 23.33° C 56% 1015.1 hPa 0 mm - 538 W/m² -
1787905040 22.78° C 57% 1015.3 hPa 0 mm - 529 W/m² -
1787904741 22.78° C 57% 1015.2 hPa 0 mm - 519 W/m² -
1787904440 22.22° C 58% 1015.2 hPa 0 mm - 461 W/m² -
1787904142 22.22° C 58% 1015.3 hPa 0 mm - 468 W/m² -
1787903841 21.67° C 58% 1015.4 hPa 0 mm - 225 W/m² -
1787903539 21.67° C 59% 1015.3 hPa 0 mm - 102 W/m² -
1787903240 21.67° C 59% 1015.2 hPa 0 mm - 88 W/m² -
1787902940 21.67° C 59% 1015.3 hPa 0 mm - 113 W/m² -
1787902640 21.67° C 59% 1015.2 hPa 0 mm - 120 W/m² -
1787902340 21.67° C 60% 1015.4 hPa 0 mm - 260 W/m² -
1787902040 21.11° C 60% 1015.5 hPa 0 mm - 246 W/m² -
1787901739 21.11° C 61% 1015.6 hPa 0 mm - 371 W/m² -
1787901445 20.56° C 62% 1015.6 hPa 0 mm - 366 W/m² -
1787901138 20.56° C 62% 1015.6 hPa 0 mm - 325 W/m² -
1787900838 20.56° C 63% 1015.7 hPa 0 mm - 339 W/m² -

* Rain latest hour (hover to see other rain measurements)
** Current wind speed in m/s (hover to see current wind gust speed)